Regional Weather Roundup
Issued by NWS

Home | Current Version | Previous Version | Graphics & Text | Print | Product List | Glossary On
Versions: 1 2 3 4 5 6 7 8 9 10 11 12 13 14 15 16 17 18 19 20 21 22 23 24 25 26 27 28 29 30 31 32 33 34 35 36 37 38 39 40 41 42 43 44 45 46 47 48 49 50
000
ASUS45 KSLC 301010
RWRUT

UTAH REGIONAL WEATHER ROUNDUP
NATIONAL WEATHER SERVICE SALT LAKE CITY UT
400 AM MDT WED JUL 30 2014

UTZ001>011-023>025-301100-

NORTHERN UTAH

CITY           SKY/WX    TMP DP  RH WIND       PRES   REMARKS
HILL AFB       CLOUDY    66  61  82 SE10      30.20R
LOGAN          LGT RAIN  62  61  96 W8        30.20F
OGDEN          CLOUDY    67  59  75 CALM      30.17S
PROVO AIRPORT  CLOUDY    64  57  77 SE7       30.21S
SALT LAKE CITY LGT RAIN  66  64  93 SW5       30.16F FOG
VERNAL         CLOUDY    63  56  78 CALM      30.23S
WENDOVER       PTCLDY    70  50  49 CALM      30.18S
HEBER CITY     CLOUDY    59  57  94 CALM      30.25F
WEST JORDAN    CLOUDY    66  66 100 CALM      30.20S

$$

UTZ012>022-026-027-301100-

SOUTHERN UTAH

CITY           SKY/WX    TMP DP  RH WIND       PRES   REMARKS
BRYCE CANYON   PTCLDY    52  51  97 CALM      30.37S
CEDAR CITY     PTCLDY    58  56  93 N5        30.24S
MILFORD        CLEAR     60  57  89 NW6       30.21S
MOAB/CYNLANDS  CLEAR     63  59  87 S3        30.16S
PRICE          CLOUDY    63  54  72 SE5       30.25S
ST GEORGE      PTSUNNY   81  55  41 N6        30.02S
KANAB            N/A     64  52  63 N5        30.20F

$$

REGIONAL REPORTS     COLORADO/ARIZONA

CITY           SKY/WX    TMP DP  RH WIND       PRES   REMARKS
CRAIG, CO      CLOUDY    56  32  40 SW5       30.28R
GRAND JUNCTION PTCLDY    59  58  96 CALM      30.19S
RIFLE          MOCLDY    59  57  93 CALM      30.25R
MONTROSE       PTCLDY    58  55  90 SE3       30.26S
CORTEZ         PTCLDY    59  56  89 NE6       30.23S
PAGE, AZ       CLEAR     78  52  40 N3        30.11F
GRAND CANYON   PTCLDY    53  48  83 CALM      30.30F
KINGMAN        CLEAR     74  52  46 S6        30.05
FLAGSTAFF      CLEAR     59  47  64 NW3       30.33F

$$

REGIONAL REPORTS    NEVADA/IDAHO/WYOMING

CITY           SKY/WX    TMP DP  RH WIND       PRES   REMARKS
LAS VEGAS, NV  PTCLDY    88  55  32 SW3       29.91S
ELY            CLEAR     51  51 100 CALM      30.32S
ELKO           MOCLDY    62  48  60 SE5       30.25R
POCATELLO, ID  CLEAR     59  55  87 SE5       30.21F
BURLEY         PTCLDY    59  53  80 CALM      30.19R
EVANSTON, WY   CLOUDY    55  53  93 NE10      30.34F
ROCK SPRINGS   CLOUDY    56  52  86 NE13      30.34S

$$


USA.gov is the U.S. government's official web portal to all federal, state and local government web resources and services.